Location: Richmond
(37.5536°N, 77.4606°W)
Time: 13:17:25
(UTC-05:00)

ISS - Visible Passes

Search period start: 25 January 2015 00:00
Search period end: 04 February 2015 00:00
Orbit: 402 x 410 km, 51.6° (Epoch: 25 January)

Date Brightness Start Highest point End Pass type
(mag) Time Alt. Az. Time Alt. Az. Time Alt. Az.
25 Jan -1.9 05:44:50 27° N 05:45:48 33° NNE 05:48:51 10° E visible
26 Jan -0.4 04:55:23 16° ENE 04:55:23 16° ENE 04:56:30 10° E visible
26 Jan -2.9 06:28:05 15° WNW 06:30:35 46° SW 06:33:45 10° SSE visible
27 Jan -3.4 05:38:43 78° NNW 05:38:52 83° NE 05:42:10 10° SE visible
28 Jan -0.3 04:49:24 16° ESE 04:49:24 16° ESE 04:50:13 10° ESE visible
28 Jan -1.5 06:22:08 15° WSW 06:23:22 17° SW 06:25:36 10° S visible
29 Jan -1.7 05:32:56 25° S 05:32:56 25° S 05:34:45 10° SSE visible
02 Feb -1.0 18:42:11 10° SSE 18:43:03 12° SE 18:43:03 12° SE visible
03 Feb -2.1 19:24:34 10° SW 19:26:40 36° SSW 19:26:40 36° SSW visible
